Weather History for KSUX - August, 2013

Change the Weather History Date:

Saturday, August 31, 2013

  Actual Average Record
Temperature  
Mean Temperature 78 °F 69 °F  
Max Temperature 90 °F 81 °F 96 °F (1948)
Min Temperature 66 °F 57 °F 43 °F (1967)
Degree Days  
Heating Degree Days 0 1  
Month to date heating degree days 5 9  
Since 1 June heating degree days 60 42  
Since 1 July heating degree days 20 15  
Cooling Degree Days 13 5  
Month to date cooling degree days 264 232  
Year to date cooling degree days 801 777  
Since 1 June cooling degree days 745 713  
Growing Degree Days 28 (Base 50)    
Moisture  
Dew Point 71 °F    
Average Humidity 80    
Maximum Humidity 100    
Minimum Humidity 59    
Precipitation  
Precipitation 0.05 in 0.11 in 1.24 in (1921)
Month to date precipitation 3.07 3.23  
Year to date precipitation 20.13 20.54  
Snow  
Snow 0.00 in 0.00 in 0.00 in ()
Month to date snowfall 0.0 0.0  
Since 1 June snowfall 0.0 0.0  
Since 1 July snowfall 0.0 0.0  
Snow Depth 0.00 in    
Sea Level Pressure  
Sea Level Pressure 29.82 in    
Wind  
Wind Speed 4 mph (South)    
Max Wind Speed 23 mph    
Max Gust Speed 28 mph    
Visibility 10 miles    
Events      
T = Trace of Precipitation, MM = Missing Value Source: NWS Daily Summary

Daily Weather History Graph

Daily Weather History Graph

Search for Another Location

Airport or City:

Trip Planner

Search our weather history database for the weather conditions in past years. The results will help you decide how hot, cold, wet, or windy it might be!

Date:

Astronomy

Aug. 31, 2013 Rise Set
Actual Time 6:49 AM CDT 8:00 PM CDT
Civil Twilight 6:20 AM CDT 8:29 PM CDT
Nautical Twilight 5:46 AM CDT 9:04 PM CDT
Astronomical Twilight 5:09 AM CDT 9:40 PM CDT
Moon 2:16 AM CDT (8/31) 5:02 PM CDT (8/31)
Length of Visible Light 14h 08m
Length of Day
13h 10m
Waning Crescent, 21% of the Moon is Illuminated
Aug 31
Waning Crescent
Sep 5
New
Sep 12
First Quarter
Sep 19
Full
Sep 26
Last Quarter

Hourly Weather History & Observations

Time (CDT) Temp. Heat Index Dew Point Humidity Pressure Visibility Wind Dir Wind Speed Gust Speed Precip Events Conditions
12:52 AM 73.9 °F - 70.0 °F 87% 29.86 in 10.0 mi East 3.5 mph - N/A   Clear
1:52 AM 69.1 °F - 68.0 °F 96% 29.86 in 10.0 mi Calm Calm - N/A   Clear
2:52 AM 69.1 °F - 68.0 °F 96% 29.87 in 10.0 mi Calm Calm - N/A   Clear
3:52 AM 69.1 °F - 66.9 °F 93% 29.85 in 10.0 mi SE 3.5 mph - N/A   Clear
4:52 AM 69.1 °F - 66.9 °F 93% 29.85 in 10.0 mi Calm Calm - N/A   Clear
5:52 AM 66.9 °F - 66.0 °F 97% 29.85 in 7.0 mi Calm Calm - N/A   Clear
6:52 AM 71.1 °F - 68.0 °F 90% 29.84 in 10.0 mi ENE 8.1 mph - N/A   Partly Cloudy
7:52 AM 70.0 °F - 68.0 °F 93% 29.88 in 9.0 mi SW 3.5 mph - N/A   Clear
8:52 AM 71.1 °F - 69.1 °F 93% 29.88 in 7.0 mi Calm Calm - N/A   Clear
9:52 AM 77.0 °F - 71.1 °F 82% 29.87 in 10.0 mi Calm Calm - N/A   Clear
10:52 AM 80.1 °F 83.8 °F 72.0 °F 76% 29.86 in 10.0 mi Variable 3.5 mph - N/A   Clear
11:52 AM 84.0 °F 89.0 °F 71.1 °F 65% 29.84 in 10.0 mi SW 4.6 mph - N/A   Clear
12:52 PM 87.1 °F 94.5 °F 73.0 °F 63% 29.82 in 10.0 mi Calm Calm - N/A   Clear
1:52 PM 89.1 °F 97.0 °F 73.0 °F 59% 29.81 in 10.0 mi Calm Calm - N/A   Clear
2:52 PM 89.1 °F 97.0 °F 73.0 °F 59% 29.79 in 10.0 mi South 8.1 mph - N/A   Clear
3:52 PM 90.0 °F 99.0 °F 73.9 °F 59% 29.78 in 10.0 mi SSW 5.8 mph - N/A   Clear
4:52 PM 90.0 °F 99.0 °F 73.9 °F 59% 29.77 in 10.0 mi WSW 5.8 mph - N/A   Clear
5:52 PM 89.1 °F 98.0 °F 73.9 °F 61% 29.76 in 10.0 mi SSW 6.9 mph - N/A   Clear
6:52 PM 84.9 °F 93.3 °F 75.0 °F 72% 29.76 in 10.0 mi SSW 3.5 mph - N/A   Clear
7:52 PM 84.0 °F 89.6 °F 72.0 °F 67% 29.76 in 10.0 mi SSW 3.5 mph - N/A   Clear
8:52 PM 79.0 °F - 72.0 °F 79% 29.78 in 10.0 mi Calm Calm - N/A   Clear
9:52 PM 77.0 °F - 73.0 °F 88% 29.78 in 10.0 mi SE 4.6 mph - N/A   Clear
10:52 PM 75.0 °F - 73.0 °F 94% 29.77 in 10.0 mi ESE 3.5 mph - N/A   Clear
11:52 PM 75.0 °F - 73.0 °F 94% 29.77 in 10.0 mi ESE 4.6 mph - N/A   Mostly Cloudy